sat.trackr.live / text

‹ back to catalog

UNKNOWN

NORAD 87054

UNKNOWN UNKNOWN UNKNOWN

§ Identity

Operator
Country
Launch date
Launch site
Launch vehicle
Mass (kg)
RCS (m²)

External: N2YO · Heavens-Above

§ Orbital elements

Epoch: 2026-09-17T11:41:52.667232Z

Period
101.98 min
Inclination
100.0799°
Eccentricity
0.0012688
Mean motion
14.12077194 rev/d
Perigee alt
843.1 km
Apogee alt
861.4 km
Semi-major
7,230.4 km
B*
8.2564e-4
RAAN
179.1813°
Arg perigee
318.3928°
Mean anomaly
41.6273°
Rev number
65,565

§ Raw data

UNKNOWN1 87054U          26260.48741513  .00001460  00000+0  82564-3 0  99912 87054 100.0799 179.1813 0012688 318.3928  41.6273 14.12077194655657

JSON: /api/v1/satellites/87054 · /tle

For live sub-satellite position, see the globe view (requires WebGL).

§ Visibility from observer

Set your observer location to see the next 7 days of passes ≥ 10°. The values pass through the URL so the page stays shareable.

No JS? Fill the form by hand. The geolocation button needs JavaScript.